GFSWCAN_250_rhum_177.txt.gz
RH
66 69 100 95 69 82 96 59 46 51 66 100 100 100 100 100 100 100 100 100 99 90 83 80 83 92 100 95 98 100 100 100 98 100 93 99 100 100 95 90 87 84 79 85 73 56 54 59 59 50 54 51 50 60
94 95 94 97 76 92 100 90 58 61 64 64 93 100 100 100 100 100 100 100 100 100 100 96 85 83 92 78 75 97 100 97 93 86 75 66 63 82 89 81 99 100 100 100 100 92 86 58 43 49 61 66 84 86
98 100 100 100 93 98 100 89 77 59 57 57 67 92 86 100 100 100 100 100 100 100 100 100 100 100 100 100 100 96 85 98 100 100 75 68 77 86 100 100 100 100 100 100 100 100 100 96 86 82 95 86 100 100
100 100 100 100 100 96 96 81 83 90 65 67 64 59 61 78 98 89 100 100 100 100 100 100 100 94 95 90 83 93 96 98 94 89 98 100 93 70 87 100 100 100 100 100 100 99 96 100 100 100 90 77 75 68
100 100 92 94 91 100 92 95 99 81 86 71 73 64 61 71 82 95 94 89 98 100 100 100 100 100 99 97 100 98 80 65 74 78 71 59 85 94 87 92 100 100 100 100 80 91 93 96 92 93 87 72 70 67
100 100 98 95 87 74 72 76 78 72 68 69 75 74 67 63 62 63 72 80 83 71 79 90 100 100 100 100 100 91 98 98 79 66 67 78 67 50 66 89 100 100 100 94 77 79 72 75 81 80 54 47 43 42
96 98 94 86 82 69 80 92 83 88 75 76 81 81 87 83 73 73 65 73 82 69 63 66 83 100 99 85 88 82 73 76 83 75 66 59 53 49 46 77 100 84 74 82 83 78 77 74 58 45 44 46 48 47
99 100 99 100 99 97 89 97 98 100 100 100 94 90 80 86 95 77 72 70 72 68 66 65 69 84 96 85 80 96 95 65 56 63 71 65 58 57 52 82 69 73 67 78 87 82 65 54 53 53 45 40 36 34
100 100 93 100 100 100 100 100 100 100 100 100 99 91 76 71 84 100 89 74 69 71 62 60 78 73 72 75 77 82 85 80 59 49 58 61 69 74 78 70 63 58 57 60 58 51 49 47 42 39 36 32 34 34
87 90 100 100 100 100 100 100 100 100 100 100 100 97 100 94 86 71 68 62 56 54 48 55 62 55 60 61 55 56 65 66 66 60 52 48 53 78 76 63 60 57 53 53 46 42 40 38 36 34 32 30 30 30
58 76 79 66 62 71 70 70 89 46 45 46 43 68 66 68 72 73 78 54 44 40 44 67 73 62 39 42 40 39 36 41 42 45 47 40 45 53 58 59 54 43 37 35 32 32 34 30 25 27 28 22 21 22
24 20 23 23 23 29 25 20 17 13 15 15 20 32 24 26 31 31 50 69 57 51 52 52 54 62 49 37 36 30 27 26 27 27 26 30 34 37 40 41 40 37 33 29 27 27 23 21 20 22 20 18 16 15
9 10 13 12 11 12 13 12 13 12 10 11 11 11 14 17 18 24 32 35 33 31 30 31 37 38 41 42 35 26 22 22 22 22 22 24 25 25 24 23 21 21 22 22 22 20 18 16 16 16 15 14 13 12
7 7 7 8 9 9 9 11 11 12 10 10 10 9 9 10 13 17 19 20 22 24 24 26 29 32 28 26 22 21 19 18 18 18 21 20 18 17 18 18 18 19 17 16 15 15 14 13 13 12 13 12 11 11
6 6 6 7 7 7 7 7 8 8 8 8 7 7 8 9 10 12 14 17 18 17 17 18 18 20 19 17 16 16 17 17 18 18 18 16 14 14 13 13 13 12 12 11 11 11 12 14 15 15 15 13 11 10
5 6 5 5 6 6 6 6 6 6 5 6 6 6 8 9 10 11 13 14 14 14 15 14 13 12 12 11 11 14 16 16 16 14 12 11 11 11 12 11 11 11 11 11 12 11 10 11 11 11 10 10 9 8
7 6 6 6 6 6 6 5 5 5 5 4 5 6 7 8 9 10 11 12 13 12 11 10 10 9 8 9 14 16 14 12 12 11 11 12 11 12 13 13 13 12 11 10 10 11 10 8 7 7 7 7 6 6
5 5 5 5 5 5 5 6 6 5 5 5 6 6 7 7 8 9 9 9 10 9 9 9 8 8 10 12 12 11 10 10 10 10 10 11 12 11 9 9 8 8 7 7 6 6 6 6 6 6 5 5 4 5
4 5 5 5 5 5 5 6 6 6 6 6 6 8 7 8 8 8 8 8 8 8 7 7 8 9 10 9 8 8 8 8 8 8 8 8 8 8 7 7 7 6 5 5 5 5 5 5 5 5 4 4 4 5
4 5 5 5 5 5 5 5 6 6 8 7 7 7 6 8 8 8 8 8 7 7 7 7 7 7 7 7 7 7 8 8 6 6 7 7 6 6 6 6 6 5 5 5 5 5 5 5 4 4 3 3 3 4
4 4 4 5 5 5 6 6 6 7 6 6 6 6 6 7 7 7 7 6 5 6 6 6 6 6 6 7 6 6 6 7 6 6 6 6 6 6 6 6 5 5 5 5 4 4 3 3 3 3 3 3 3 3
4 4 4 5 6 7 7 6 6 6 6 6 6 6 7 8 8 8 6 7 7 8 7 7 7 7 6 6 7 7 7 6 6 5 5 5 6 6 5 5 4 4 4 3 3 3 4 4 3 3 3 3 3 3
5 5 5 5 5 6 5 6 6 7 7 8 7 7 8 8 8 7 7 8 8 6 5 5 5 5 6 7 8 8 6 6 6 5 5 4 4 4 4 4 4 3 3 4 4 4 3 4 3 3 3 3 3 3
5 5 5 4 3 3 4 5 6 7 7 8 8 8 7 6 6 6 7 6 6 6 5 5 5 6 6 6 7 7 6 4 4 4 4 4 4 4 3 4 4 4 3 4 4 4 4 3 3 3 4 4 4 4
7 7 5 4 3 4 4 4 4 5 5 6 6 6 6 7 9 11 9 6 5 5 4 4 4 5 7 7 6 5 4 3 3 5 5 3 3 4 4 4 3 3 3 5 4 3 3 3 3 3 3 3 4 4
7 6 6 6 6 7 9 9 7 6 6 6 6 7 8 7 6 5 4 4 3 3 3 5 7 6 4 3 4 4 3 4 4 4 3 3 3 4 4 3 4 3 3 3 3 3 3 3 3 4 4 4 4 4
6 6 6 6 7 7 5 4 4 4 5 5 5 4 4 3 3 2 2 2 3 4 4 4 3 2 3 3 3 3 4 4 4 4 3 3 3 3 3 3 3 3 3 4 4 4 4 4 4 4 4 4 4 5
5 4 4 4 4 5 6 7 6 5 6 7 5 5 5 3 3 3 4 4 4 4 4 3 3 3 4 4 3 4 3 4 3 3 3 3 3 3 3 3 4 4 4 4 4 4 4 4 4 4 5 5 5 6
5 5 5 5 5 6 6 5 5 6 5 5 5 4 3 4 4 5 3 3 4 4 4 3 3 4 4 4 4 3 3 3 3 3 3 3 3 4 4 4 4 4 4 4 4 4 4 5 6 6 6 6 6 6
5 4 5 6 7 8 6 6 6 5 5 5 5 4 4 4 4 4 4 4 4 4 4 4 4 3 3 3 3 3 3 3 3 4 4 5 5 5 5 5 5 5 5 6 6 7 7 8 8 8 8 8 8 8
7 7 7 6 6 5 5 5 5 5 5 5 5 4 4 4 4 4 4 4 4 4 4 4 4 4 4 4 4 4 4 4 5 6 7 6 6 6 6 5 6 6 6 7 8 8 9 9 10 10 10 10 10 10
6 6 6 6 6 6 6 5 5 5 5 5 5 4 4 4 4 4 4 4 4 4 4 4 4 5 5 5 5 6 6 7 8 8 7 7 7 6 7 7 8 8 8 9 9 10 10 11 11 11 12 12 11 11
7 7 7 7 6 6 6 5 5 5 5 5 5 5 5 5 5 4 5 5 5 6 6 6 6 7 7 8 9 10 10 10 10 9 9 9 9 9 10 10 10 10 10 11 11 11 11 11 12 12 12 12 12 11

GFSWCAN_250_rhum_180.txt.gz
RH
92 92 90 96 100 100 99 95 100 97 81 52 78 83 78 68 79 75 58 95 92 98 100 100 100 100 100 100 92 99 100 100 89 88 99 100 100 100 100 100 100 100 100 100 100 100 100 100 89 83 84 96 90 94
100 85 98 100 100 100 98 100 100 66 61 53 72 100 87 78 78 100 70 57 67 97 91 100 100 100 100 100 100 100 100 100 100 91 72 62 59 73 100 100 100 100 100 99 90 77 99 95 76 83 98 92 83 74
86 84 92 78 84 71 96 65 55 58 80 89 89 98 92 79 93 88 69 83 58 63 64 90 99 100 100 100 100 100 100 100 100 100 100 94 86 79 74 66 77 100 100 100 100 100 100 81 82 78 77 76 70 75
96 99 97 84 77 70 75 68 60 79 100 91 100 91 99 95 76 100 92 92 85 66 80 59 63 66 96 97 100 100 100 100 100 100 100 100 93 88 99 98 94 94 89 84 86 83 68 90 99 98 97 90 88 83
100 91 87 98 94 88 100 91 96 100 100 100 100 100 100 100 86 77 87 84 70 66 62 71 57 71 65 67 91 100 97 98 100 100 100 99 92 92 97 93 96 99 100 100 59 66 59 58 58 58 54 52 53 58
100 100 100 100 100 96 100 100 100 100 100 100 96 100 100 100 99 91 83 78 85 76 60 62 71 68 62 72 76 76 78 74 78 76 78 78 88 73 75 96 91 90 83 66 58 67 59 58 52 47 48 48 48 50
100 100 100 100 100 100 100 98 88 100 100 98 100 100 99 96 99 100 85 98 93 85 73 56 73 83 93 84 75 83 83 74 60 55 61 67 80 79 66 74 100 80 70 53 55 53 50 50 48 50 48 51 50 45
96 100 100 100 100 100 100 100 100 100 100 100 100 100 100 100 100 100 100 86 99 98 79 69 64 80 100 58 81 100 100 97 79 62 55 56 55 53 49 80 72 82 77 78 71 69 51 44 45 42 37 35 33 33
100 100 100 100 100 100 100 86 100 100 100 100 100 100 100 100 100 100 99 100 99 93 83 54 76 92 99 98 97 84 88 95 81 74 77 77 74 75 76 73 67 69 72 76 69 63 57 57 51 43 35 31 28 29
100 100 100 100 100 100 100 100 100 100 100 97 98 97 71 96 100 95 89 100 100 100 90 78 88 81 98 100 100 95 99 82 52 51 48 46 52 77 56 56 58 59 56 52 44 46 48 45 41 37 33 28 26 26
88 100 100 100 94 100 100 100 97 72 30 49 35 28 46 59 45 33 62 57 85 75 76 99 99 95 100 100 91 47 38 42 37 35 38 40 51 66 56 58 55 47 41 40 43 42 41 37 33 28 28 27 25 24
32 52 60 23 17 20 25 22 16 14 14 14 14 14 16 16 15 14 16 21 32 37 49 86 100 100 84 82 88 29 24 26 18 18 20 23 36 39 40 34 36 34 33 32 35 37 31 23 21 22 25 26 23 19
14 12 12 13 14 14 13 13 14 14 13 12 12 13 13 12 12 11 12 13 14 16 17 23 28 30 20 18 20 20 16 18 16 15 19 26 35 30 24 21 20 23 26 24 23 20 19 20 22 21 20 18 15 13
11 11 11 11 11 11 11 10 11 11 11 11 11 10 11 10 10 11 12 11 10 12 14 13 12 13 14 15 15 13 12 12 14 15 18 20 20 17 19 20 20 20 20 21 20 19 17 15 14 13 11 10 9 10
9 9 9 8 8 8 9 8 8 8 9 8 8 7 7 8 8 8 9 10 10 10 10 10 10 10 10 10 11 11 10 11 14 13 13 13 12 12 13 13 14 16 15 14 13 13 12 10 10 10 11 10 11 11
8 9 8 8 8 7 7 7 6 6 6 6 5 5 6 6 6 7 8 8 9 9 8 8 8 8 8 8 8 10 12 14 14 12 10 10 11 12 11 11 11 12 12 10 9 8 8 9 10 9 9 9 9 8
8 7 7 7 6 7 7 7 7 6 5 5 5 5 5 6 6 6 6 6 7 7 7 6 6 6 6 6 7 9 10 10 10 10 10 11 11 11 11 11 11 11 10 9 8 9 9 8 8 8 7 7 7 6
9 9 9 8 8 8 7 7 6 6 6 6 6 6 6 6 6 6 6 5 5 6 6 6 5 5 5 6 7 8 7 7 8 9 9 9 9 10 10 9 8 8 8 8 7 7 7 7 6 6 5 5 5 5
8 8 7 6 6 5 5 4 4 4 4 4 4 4 4 5 5 6 6 6 6 6 5 5 5 6 7 6 5 6 6 7 7 8 8 9 9 8 7 7 7 7 6 6 6 6 5 5 5 5 5 5 4 5
6 6 5 5 4 4 4 4 4 4 4 5 5 5 5 5 6 6 6 6 5 5 5 5 6 5 5 5 6 6 7 7 7 8 8 7 7 6 6 6 6 6 5 5 5 5 5 5 6 5 5 4 4 4
7 7 7 6 5 4 4 4 4 4 4 5 5 5 5 5 6 6 6 6 6 7 7 6 5 5 6 6 7 7 6 6 6 5 6 6 6 6 6 6 5 6 6 6 5 5 5 5 5 4 3 3 3 3
8 9 8 7 5 4 4 3 4 4 5 5 5 6 6 6 6 6 6 6 6 6 5 5 5 5 5 6 6 6 7 6 6 6 7 7 7 6 6 6 6 6 5 5 4 4 5 4 3 3 3 4 3 3
9 8 7 6 6 4 4 5 5 5 6 6 7 7 7 6 6 6 6 5 5 4 4 5 6 6 7 8 8 8 6 5 6 6 5 5 5 6 6 5 4 5 4 5 4 4 4 4 3 3 3 3 3 3
8 8 8 7 6 6 6 7 8 7 6 5 5 6 6 6 6 6 5 5 5 5 5 6 7 8 8 8 7 5 4 4 5 5 4 4 6 6 4 5 4 3 3 6 5 4 3 3 4 4 4 4 3 3
8 8 8 9 9 8 8 8 7 6 5 5 4 5 7 6 4 4 5 5 4 4 5 5 6 7 6 5 5 4 4 4 5 7 5 4 4 5 5 3 3 3 5 4 4 4 3 3 3 3 3 3 4 4
7 8 8 8 8 7 6 5 4 4 5 6 6 5 4 3 3 3 3 4 4 5 5 4 4 3 3 3 3 4 3 4 4 4 3 3 4 4 3 4 3 3 4 3 3 3 3 4 4 4 4 4 4 4
6 6 6 6 6 8 8 8 8 7 8 7 6 5 5 4 3 4 5 4 4 4 4 3 3 3 3 3 3 3 3 3 3 3 3 3 3 3 3 3 3 3 3 3 4 4 4 4 5 5 5 4 4 4
5 6 7 8 7 6 6 5 5 6 6 6 5 5 5 5 5 6 4 4 5 4 4 4 4 4 4 4 4 3 3 3 3 3 3 3 3 3 3 3 3 4 4 4 5 5 5 5 5 5 6 6 6 7
6 6 6 6 6 6 5 6 6 6 6 5 5 6 6 6 4 4 4 4 4 4 4 4 4 4 4 4 4 3 3 3 3 3 3 3 3 4 4 4 5 6 6 6 6 6 6 6 7 7 7 7 7 8
7 7 7 7 6 6 7 7 6 6 5 4 5 6 5 5 5 5 5 5 4 4 4 4 4 4 3 3 3 3 4 4 4 5 5 5 5 5 6 6 7 7 7 7 7 8 8 8 8 8 9 9 9 10
6 7 8 7 7 8 7 7 6 6 6 6 6 6 6 6 6 6 5 5 5 5 4 4 4 4 4 4 5 5 6 6 7 7 6 6 7 8 8 9 9 9 9 9 9 10 10 10 10 10 11 11 11 11
8 8 8 8 8 8 8 7 7 6 6 6 6 6 6 6 6 5 5 5 5 5 5 5 5 5 6 7 8 8 8 8 8 8 9 9 10 10 11 11 11 11 11 11 12 12 13 14 13 13 13 12 11 11
9 9 8 8 8 8 7 7 6 6 7 7 7 6 6 6 6 6 6 7 7 8 8 8 9 9 10 10 10 10 10 10 11 12 13 13 13 14 14 14 14 14 15 15 16 15 14 14 14 14 14 14 13 13

GFSWCAN_250_rhum_183.txt.gz
RH
62 70 68 70 84 82 90 93 62 72 86 91 70 78 82 100 96 89 67 62 57 86 96 63 58 79 79 87 100 100 100 100 100 100 100 97 100 100 99 99 100 100 100 100 100 88 94 96 85 80 87 100 100 100
87 91 83 87 88 90 88 96 100 86 77 100 97 78 99 93 80 72 72 63 54 84 100 91 75 66 70 83 63 83 100 100 100 100 100 100 100 100 100 99 100 100 100 100 100 96 99 89 78 71 77 80 76 71
93 100 100 100 97 98 85 100 99 81 88 100 98 67 74 74 66 60 69 64 65 81 100 98 98 67 66 71 70 65 66 66 84 96 99 100 100 98 100 100 100 100 100 100 100 100 100 68 64 69 62 57 53 57
100 100 100 100 100 90 91 96 87 92 100 80 85 98 79 76 71 70 67 77 69 73 87 91 95 85 72 70 80 81 92 77 76 70 57 65 82 84 95 100 100 100 100 100 100 100 94 89 95 96 82 72 79 79
98 98 100 100 100 100 100 100 100 100 91 97 100 83 85 100 84 85 80 97 81 73 71 93 100 100 100 86 87 90 98 95 75 68 64 64 68 61 63 81 94 98 100 100 99 90 68 79 92 88 82 82 83 78
100 100 95 100 96 100 100 100 100 100 100 100 100 88 91 100 100 100 84 88 100 97 82 84 78 92 100 100 100 100 100 100 99 78 77 70 65 65 66 70 68 86 91 84 63 64 73 77 74 63 59 56 58 53
100 100 100 100 100 100 100 100 100 100 100 100 100 98 100 97 98 84 100 100 100 100 97 88 90 89 100 100 100 100 100 100 100 98 88 95 80 65 53 50 90 74 74 65 60 64 72 72 71 62 61 68 68 62
100 100 100 100 100 100 100 100 100 100 100 98 100 98 100 100 100 100 100 100 100 100 100 96 100 100 100 100 100 100 100 100 100 100 78 66 59 54 39 66 71 76 86 67 65 62 54 50 55 59 54 51 50 47
100 100 100 100 100 100 100 100 93 100 96 97 100 100 100 100 100 100 100 100 100 100 100 100 99 100 100 100 100 100 94 100 100 100 97 88 74 70 97 86 84 67 61 79 96 85 71 67 50 44 45 44 37 37
100 100 100 100 90 100 100 95 100 100 100 100 100 100 100 100 100 100 100 100 100 100 96 100 100 83 100 100 76 56 100 100 100 80 55 50 52 83 73 87 77 84 94 85 71 63 58 58 53 50 52 39 29 26
100 100 100 100 100 100 100 100 100 100 100 100 100 100 99 100 100 100 96 44 59 87 100 100 96 39 82 79 29 26 30 46 46 37 25 26 37 77 58 64 61 55 48 45 39 35 29 28 35 28 25 25 25 28
100 100 78 69 68 49 100 100 100 81 22 32 40 37 42 59 49 25 23 17 18 30 62 74 28 18 18 18 18 16 18 19 23 23 20 16 24 30 35 32 26 23 20 18 20 22 20 19 20 20 19 17 17 19
17 15 16 16 14 18 26 18 15 15 13 14 14 12 12 13 12 12 14 14 13 12 13 15 16 15 15 16 16 15 13 12 12 12 11 11 13 15 17 16 16 15 15 15 15 15 15 13 12 13 13 12 12 13
14 14 15 14 13 14 13 13 12 11 11 12 11 10 9 9 10 11 11 11 12 12 13 14 12 10 10 10 10 10 9 8 8 9 10 10 11 13 12 12 12 12 13 14 13 12 11 10 10 10 10 10 10 10
11 12 12 11 10 10 11 10 9 9 9 9 9 8 8 8 8 8 8 9 9 8 9 9 8 8 7 6 6 6 6 6 8 9 10 10 10 10 11 11 10 10 11 12 11 10 10 10 10 9 10 10 10 9
10 10 9 9 10 10 9 9 9 9 9 8 8 8 7 7 7 7 6 6 7 6 7 6 6 6 6 6 5 5 4 4 7 8 7 6 8 8 8 8 8 8 9 10 10 10 9 8 9 10 9 9 9 8
9 8 8 9 9 9 9 9 8 8 8 8 8 7 6 6 5 5 5 5 5 4 4 5 4 4 5 5 5 5 6 6 5 5 6 7 7 8 8 8 8 8 8 7 7 8 8 8 8 7 7 8 7 7
8 7 8 8 7 7 8 8 8 8 8 8 8 7 6 6 6 6 6 6 6 5 5 4 4 5 5 6 8 7 5 5 6 6 6 6 6 6 7 8 7 6 6 6 6 6 6 6 6 6 6 6 6 6
11 11 10 10 10 9 9 9 8 9 8 7 6 6 5 5 4 4 4 4 4 4 4 4 4 5 5 5 5 6 7 8 7 7 7 8 7 6 6 6 6 5 5 5 5 5 5 6 6 6 5 5 4 5
12 11 10 10 10 9 8 7 6 6 5 5 4 4 4 4 4 4 4 4 4 4 5 5 4 4 4 4 6 6 6 6 7 7 7 7 6 5 5 5 5 5 5 6 6 5 5 5 5 4 4 4 4 5
9 8 8 7 7 6 6 6 5 5 6 6 4 4 4 4 4 4 4 4 4 4 4 5 5 6 6 6 6 7 6 6 6 6 7 8 6 6 6 4 4 5 5 5 5 5 5 5 4 5 4 4 3 3
10 10 10 9 7 6 5 6 8 9 9 7 5 4 4 4 3 3 3 4 5 5 7 7 6 5 5 4 4 4 4 4 4 5 5 5 6 5 5 5 6 6 6 5 4 5 5 4 3 3 3 3 4 3
11 11 9 8 8 8 11 10 9 8 7 5 4 4 3 3 4 3 3 4 5 5 5 5 6 6 7 6 6 5 4 4 5 6 6 6 6 5 6 7 5 4 5 4 4 4 4 4 3 3 4 4 3 3
13 12 12 13 14 11 8 7 7 6 4 3 3 3 3 3 3 2 3 4 5 5 6 7 8 8 7 5 5 4 4 4 5 5 4 4 5 6 5 4 3 4 5 6 3 3 3 4 4 4 4 3 3 3
10 10 9 9 8 7 7 5 6 6 6 5 6 6 6 6 4 3 4 5 6 6 5 5 5 5 4 4 4 4 4 4 5 4 3 4 4 4 3 3 3 4 4 3 3 3 4 3 3 3 3 4 4 4
8 6 7 7 7 7 7 8 9 7 6 6 6 6 5 5 5 5 6 4 4 4 4 4 4 4 3 3 3 3 3 4 4 3 3 4 3 3 3 3 3 4 4 3 3 3 3 3 4 4 5 5 5 5
5 6 7 7 7 7 6 6 6 6 6 5 5 6 5 6 6 7 5 6 6 5 5 4 4 3 3 3 3 3 3 4 4 4 3 4 4 4 4 3 3 3 3 3 3 4 4 4 5 6 6 6 6 6
7 7 6 6 6 7 6 6 6 5 5 5 6 8 8 7 5 5 7 6 6 5 5 4 4 4 4 4 4 4 4 4 4 4 4 3 3 3 3 3 4 4 4 5 5 5 5 6 7 7 7 7 7 7
6 7 8 7 7 7 6 6 6 6 6 7 8 7 6 6 6 6 6 6 5 5 5 5 5 4 4 4 4 4 4 4 4 4 3 3 4 4 4 5 5 7 7 6 6 7 8 9 10 10 9 9 9 9
8 8 7 6 7 7 6 8 8 8 8 7 6 6 6 7 6 6 5 5 5 5 5 5 4 4 4 5 4 4 4 4 4 4 5 5 5 6 8 8 8 7 7 8 10 11 12 12 12 11 11 11 11 11
8 8 9 9 9 8 8 8 8 9 8 7 7 7 7 7 7 6 6 6 6 5 5 5 5 5 5 5 5 5 6 6 7 8 8 9 10 9 9 9 9 10 12 14 15 15 15 14 13 13 13 13 13 13
10 10 10 9 8 8 8 10 9 8 8 8 8 8 7 7 7 7 7 7 7 7 7 7 7 7 7 8 8 9 9 10 10 10 11 11 12 12 12 13 14 15 16 17 17 17 16 16 15 14 14 14 14 14
9 10 10 10 9 9 9 9 9 9 8 8 8 9 9 9 10 9 10 11 11 12 12 12 12 12 12 12 12 12 12 12 12 12 12 12 12 13 14 15 16 17 17 17 17 17 17 17 17 17 16 15 14 14

GFSWCAN_250_rhum_189.txt.gz
RH
81 98 61 88 66 69 79 64 65 58 63 57 62 77 79 81 84 60 65 63 65 86 75 89 81 78 94 96 100 100 100 99 99 84 66 64 65 71 76 71 76 83 80 77 81 74 68 88 93 78 65 59 59 74
86 72 83 85 79 77 78 86 86 90 90 71 62 64 65 70 86 80 76 63 79 86 82 100 100 100 98 100 100 100 94 100 100 80 81 77 60 71 68 54 72 76 90 90 68 68 71 72 71 75 66 68 66 79
75 83 95 92 99 100 100 100 89 89 100 97 86 78 76 90 88 80 55 66 99 87 90 98 100 100 100 100 100 100 100 99 100 97 83 89 63 66 67 68 68 86 90 89 100 100 100 100 87 65 58 64 59 63
85 99 100 100 99 100 100 96 94 86 73 100 99 90 73 66 60 69 72 82 84 100 100 100 100 100 100 100 100 100 100 100 100 100 98 71 82 84 90 97 88 86 88 100 75 96 100 100 100 93 79 71 66 63
100 98 99 100 100 100 100 100 91 93 66 85 83 93 100 90 82 64 80 100 100 100 100 100 100 100 100 100 100 100 100 100 100 100 100 97 74 91 80 72 72 100 100 84 76 94 100 92 100 100 100 70 64 61
100 100 100 100 100 100 100 100 98 87 100 92 100 88 97 97 100 100 99 92 100 100 100 100 100 100 100 100 100 100 100 100 100 100 100 100 100 95 80 79 100 100 100 100 85 99 92 93 98 96 90 78 71 60
100 100 100 100 94 99 100 100 100 100 100 100 100 100 100 100 100 100 100 100 100 100 100 100 100 100 100 100 100 100 100 100 100 92 100 100 100 100 100 72 100 94 98 100 94 100 100 100 94 100 78 67 63 62
100 100 82 100 100 100 100 100 100 100 100 100 100 100 100 100 100 100 100 100 100 100 100 100 100 100 100 100 95 93 96 100 100 100 100 100 100 100 100 100 100 100 100 100 97 100 100 100 100 94 74 67 60 54
100 100 100 100 100 100 100 100 100 100 100 100 100 100 100 100 100 100 100 100 100 100 100 100 100 100 100 100 100 100 97 94 100 100 100 100 100 100 100 100 100 100 100 100 100 100 100 100 100 100 99 75 64 50
100 100 100 100 100 100 100 100 100 100 100 100 100 100 100 100 100 100 100 100 100 100 100 100 100 100 100 100 100 99 84 85 100 83 92 97 100 100 100 95 100 93 87 93 99 86 97 100 100 100 82 51 57 54
100 100 98 88 100 100 100 100 100 100 100 100 100 100 100 100 100 100 100 100 100 100 100 100 100 98 89 77 77 64 56 63 56 67 62 58 67 42 40 47 43 41 58 61 31 28 24 21 20 17 16 17 24 21
66 54 60 60 66 98 100 93 92 73 70 98 100 100 100 100 100 100 100 100 100 100 99 92 74 64 51 64 50 41 35 29 22 22 25 25 15 13 12 14 13 10 10 10 11 11 12 13 12 11 11 12 12 11
22 30 31 32 42 42 40 39 45 53 36 54 92 94 91 64 63 67 76 80 75 71 55 29 17 15 15 16 14 14 14 12 10 10 11 10 9 9 8 8 7 7 8 9 9 9 9 9 9 9 10 10 9 9
13 13 14 15 19 18 23 24 25 23 28 34 31 32 26 23 17 17 23 21 14 13 13 13 12 11 12 11 10 10 10 10 10 10 9 8 6 5 4 5 6 7 7 7 7 7 7 7 7 7 6 6 7 6
10 11 12 12 13 13 13 15 16 16 16 15 15 15 15 13 11 12 13 13 12 11 11 11 10 9 9 8 7 8 7 7 8 8 6 5 5 6 5 4 4 5 5 5 6 6 6 6 5 5 6 5 4 4
8 9 9 10 11 12 12 12 12 12 12 13 13 11 10 10 10 10 9 9 8 8 8 8 7 7 7 7 6 6 5 5 6 6 6 6 5 5 5 4 4 4 4 4 4 4 4 5 6 6 6 6 6 6
6 6 7 7 7 8 8 9 10 10 11 10 9 8 8 8 9 8 7 7 7 7 7 6 6 6 6 5 5 6 7 7 7 7 7 6 6 5 4 3 3 3 3 3 4 4 5 4 5 5 6 7 7 7
6 6 7 8 8 8 8 8 8 8 8 7 7 6 8 8 8 8 8 6 6 5 5 6 6 9 8 7 7 6 5 5 4 4 4 4 4 4 3 3 3 3 4 4 4 4 4 5 6 5 6 6 6 6
8 9 10 10 10 10 9 8 8 9 8 8 8 9 9 9 8 9 8 7 7 7 8 8 7 6 5 4 4 4 4 3 3 4 4 4 3 3 3 3 4 4 4 5 5 5 5 5 4 4 4 4 5 5
10 10 10 12 12 11 12 11 11 12 12 13 12 12 11 10 9 7 7 7 7 7 7 6 6 5 4 5 4 4 3 3 3 3 4 4 3 4 4 4 4 4 5 4 4 4 4 4 4 5 5 5 6 5
11 11 12 13 13 12 12 13 14 13 11 10 10 10 9 8 8 7 6 4 5 7 10 9 6 6 5 4 3 3 3 3 3 4 4 6 5 5 5 5 5 4 4 4 4 3 3 4 4 5 5 5 5 4
13 13 13 12 12 12 12 14 14 13 12 9 7 7 8 7 5 5 5 6 8 11 9 7 6 5 4 3 3 3 3 3 4 4 4 6 7 6 5 4 4 4 4 4 5 4 4 4 5 5 4 4 4 4
13 13 14 15 16 15 12 10 8 7 8 10 11 10 9 8 8 8 7 7 7 7 7 6 6 5 4 4 3 3 4 5 4 3 4 4 4 4 5 5 5 6 5 4 4 5 5 4 4 4 4 4 4 4
10 9 8 10 10 10 8 9 12 16 14 12 10 9 8 8 7 7 8 7 7 7 7 6 5 5 5 5 4 4 4 4 4 4 4 3 3 3 4 4 3 3 3 3 4 4 4 4 4 4 4 4 4 4
9 10 18 27 21 16 17 17 14 10 8 9 8 8 8 7 7 7 6 6 6 6 6 6 6 7 6 4 4 5 5 4 4 4 4 3 3 3 3 3 4 4 4 4 4 4 4 4 4 4 4 4 4 5
21 25 22 16 14 13 10 7 7 7 7 7 8 7 6 7 7 7 6 6 6 6 6 7 7 7 7 6 5 4 4 4 4 4 4 4 4 4 4 4 4 4 4 4 4 4 4 4 4 5 5 6 7 8
12 11 11 10 7 7 7 7 7 7 7 7 7 7 7 6 6 6 6 6 6 6 7 7 6 6 5 5 6 5 5 5 5 5 4 4 4 4 4 4 4 4 4 4 5 6 7 7 7 7 9 10 11 10
10 8 8 9 8 7 8 8 7 7 8 7 7 6 6 7 7 7 6 7 7 7 6 6 6 6 6 6 6 6 5 5 5 5 5 5 5 5 5 6 6 6 7 7 8 8 9 10 12 12 12 12 13 13
10 9 9 8 8 9 9 8 8 8 8 8 8 9 10 9 8 8 8 7 7 7 7 7 7 6 6 6 6 6 7 7 7 7 7 7 7 8 9 9 10 10 10 10 11 12 13 14 14 15 15 15 15 14
10 10 9 9 9 9 9 9 9 9 9 9 10 9 9 8 8 8 9 9 8 8 7 7 7 8 8 8 8 9 10 10 10 11 12 12 13 12 12 12 11 12 13 14 15 15 15 15 15 16 15 15 15 15
10 10 10 10 10 10 10 10 10 10 11 11 10 10 8 8 9 9 10 9 9 10 11 11 11 12 13 14 14 14 14 14 15 15 16 16 17 17 16 16 16 17 17 17 17 17 17 17 17 17 17 17 16 15
10 10 11 11 12 11 11 10 11 12 10 9 9 10 12 12 12 11 14 15 16 17 19 19 20 20 18 18 18 19 19 19 19 18 18 19 19 20 20 20 20 20 19 19 19 18 18 17 17 17 16 16 15 14
11 12 13 13 11 10 10 12 12 13 13 14 15 15 13 14 16 19 20 19 20 20 21 21 21 21 22 21 20 20 21 22 22 21 20 20 21 21 22 22 21 21 20 19 19 19 18 17 16 16 15 14 14 13

GFSWCAN_250_rhum_192.txt.gz
RH
65 95 100 100 100 68 70 92 83 64 56 55 72 57 78 84 93 84 52 68 66 63 73 76 80 87 99 80 66 63 72 82 87 96 100 100 100 93 85 100 100 100 100 97 75 66 74 84 95 95 84 81 61 55
95 66 67 100 100 100 80 97 100 86 97 87 94 43 70 70 62 81 75 92 71 68 68 89 85 99 91 72 66 92 95 98 100 100 100 96 93 82 100 99 99 87 79 71 84 100 89 74 75 78 71 65 65 63
88 91 85 70 68 83 75 79 100 90 94 92 91 60 72 62 84 77 100 98 86 75 69 99 98 100 81 73 65 65 83 92 99 100 100 96 100 100 95 87 100 100 100 100 100 93 84 100 92 73 70 68 72 73
94 93 84 81 82 60 63 83 81 66 79 76 89 87 82 78 91 89 100 100 95 94 79 81 74 95 100 100 100 98 99 97 100 100 89 100 100 100 99 92 84 100 100 100 72 90 100 86 88 92 87 85 93 90
100 99 100 100 94 92 81 92 91 100 80 72 72 80 88 75 100 99 66 92 100 100 75 70 77 100 94 94 100 100 100 100 100 100 100 98 100 100 100 100 94 98 96 73 66 97 97 78 77 76 98 99 88 88
100 100 100 100 100 100 100 100 100 92 59 93 75 90 100 83 78 86 91 86 93 100 81 95 86 100 100 99 100 100 100 100 100 100 100 97 100 100 100 100 100 100 100 100 83 83 75 63 63 79 83 79 84 78
100 100 100 100 100 97 94 80 75 75 91 88 98 89 82 96 100 97 98 100 96 100 100 100 100 100 100 100 100 100 100 100 100 100 100 100 100 100 100 94 100 100 99 100 91 80 73 70 64 75 76 80 94 95
100 100 100 100 100 100 100 100 100 91 100 100 100 100 99 96 99 100 100 100 100 100 100 100 100 100 100 100 100 100 100 100 100 100 100 100 100 100 100 100 100 100 100 100 100 100 96 94 96 90 75 66 71 66
100 100 100 100 100 100 100 100 100 100 100 100 100 100 100 100 100 100 100 100 100 100 100 100 100 100 100 100 100 100 100 93 95 100 100 100 100 100 100 100 100 100 100 98 87 82 83 72 63 54 49 46 47 56
63 100 100 100 100 100 100 100 100 100 100 100 100 100 100 100 100 100 100 100 100 100 100 100 100 100 100 100 100 100 100 100 92 100 100 100 100 100 100 100 100 82 53 54 52 38 26 30 24 23 25 26 25 34
58 51 82 97 100 95 100 100 100 100 100 100 100 100 100 100 100 100 100 100 100 100 100 100 84 99 100 100 97 82 63 58 60 71 72 53 43 43 43 36 32 24 15 11 11 11 11 12 12 13 14 13 12 11
16 19 23 30 37 45 40 52 84 100 100 100 100 100 92 100 100 100 95 98 100 100 98 84 77 80 86 83 66 49 43 38 34 30 27 17 13 12 9 8 8 8 9 9 9 9 9 10 9 8 9 9 8 8
12 11 13 16 17 24 26 35 34 44 39 52 81 82 77 74 64 43 48 57 72 69 70 69 73 53 45 39 29 23 24 26 20 17 15 10 7 8 8 9 9 9 9 9 8 8 7 7 6 6 6 6 6 6
8 9 10 11 11 12 13 14 15 18 19 24 26 23 20 21 21 25 36 32 30 29 30 30 26 22 17 14 14 14 13 11 10 10 10 7 6 7 6 6 6 6 6 5 5 5 5 5 5 5 5 6 6 6
8 8 8 9 9 9 10 10 10 12 12 12 13 14 14 15 16 14 14 15 16 16 15 14 14 13 12 11 10 10 9 8 7 7 6 6 5 5 4 4 4 3 3 3 4 4 5 6 6 6 7 7 6 6
6 6 6 7 7 8 8 9 9 9 10 10 10 10 10 11 11 11 11 11 11 10 10 10 9 9 8 7 7 6 5 5 5 5 4 4 5 6 5 4 4 4 4 4 4 4 3 3 4 4 4 4 4 4
5 4 5 5 5 6 6 6 6 7 7 8 8 8 9 9 9 8 9 8 7 7 6 6 6 6 6 6 7 6 5 4 4 6 7 7 6 5 5 4 4 3 3 3 3 3 3 3 3 4 4 4 4 4
5 5 6 6 6 5 5 5 6 6 6 6 6 6 6 6 6 6 6 5 5 6 6 6 7 8 6 8 8 6 8 8 7 6 6 5 4 4 3 3 3 3 3 3 3 3 3 3 3 3 4 4 4 4
5 6 6 6 6 6 7 8 8 8 7 8 8 8 8 7 7 6 6 7 8 9 10 10 10 10 8 5 6 7 6 5 5 5 4 4 3 4 3 3 3 3 3 3 3 3 4 4 4 4 4 5 5 5
7 7 7 8 9 9 10 10 10 11 11 11 10 10 10 10 10 10 10 9 8 9 11 12 9 6 5 5 4 4 4 4 5 5 4 4 3 3 3 3 3 3 4 4 4 4 5 4 4 6 6 6 6 5
7 9 10 11 11 11 12 14 14 12 12 12 12 13 12 11 8 8 9 10 10 8 8 5 5 4 4 4 5 5 5 5 4 4 4 5 3 2 3 3 4 5 5 5 6 5 5 6 6 5 5 5 6 6
11 12 13 14 14 16 16 15 14 13 12 12 14 13 11 10 9 8 6 7 8 7 9 9 8 7 5 5 4 5 6 5 4 4 4 4 4 4 4 3 4 3 3 4 4 4 4 4 4 5 5 5 5 5
15 16 17 17 17 14 14 14 14 15 14 10 7 7 10 12 9 10 9 7 6 7 7 7 7 7 6 6 6 5 5 5 5 5 4 3 3 4 4 4 4 3 4 3 3 3 3 3 4 4 4 4 4 4
14 16 18 18 15 13 10 10 11 13 12 11 15 15 10 9 8 7 6 6 7 7 7 7 7 7 6 6 6 6 5 5 5 5 4 4 3 4 4 4 4 3 3 4 4 4 4 4 4 4 4 4 4 4
10 14 17 16 13 15 17 16 13 12 13 11 9 9 8 7 7 7 6 6 6 6 6 7 7 6 5 6 7 7 6 6 5 5 4 4 5 5 5 4 4 4 4 4 4 4 4 4 4 4 4 4 5 6
28 28 22 16 16 14 12 12 11 10 8 7 7 6 6 7 6 6 6 6 6 7 7 7 8 8 7 7 7 7 6 6 6 6 5 5 5 5 5 4 4 4 4 4 5 5 5 6 6 7 9 10 9 10
16 14 12 11 10 10 9 8 8 7 8 7 7 8 8 7 8 7 7 7 8 9 9 9 8 8 8 7 7 6 6 6 6 6 5 5 6 5 5 6 6 7 7 7 8 8 9 10 11 11 12 12 14 14
10 9 9 9 9 8 10 9 8 10 9 8 8 8 8 9 10 9 10 10 9 8 8 8 8 8 7 7 7 7 7 7 7 8 8 8 8 9 9 9 10 11 12 12 12 13 12 12 14 15 15 16 15 14
9 10 10 9 10 10 10 10 10 9 9 10 12 11 10 10 10 11 10 10 10 10 9 8 8 8 9 9 9 10 11 11 11 12 12 12 13 13 14 14 14 15 16 16 15 17 18 18 19 18 18 17 16 15
10 11 11 10 10 10 10 10 10 12 12 11 11 10 10 12 11 11 11 11 11 12 13 14 14 14 13 14 15 16 16 16 16 16 16 17 17 17 18 18 18 19 19 20 20 20 21 22 20 19 18 18 16 16
12 12 11 11 10 11 12 12 12 13 12 11 12 13 12 10 11 13 14 16 18 19 18 17 16 18 18 18 17 17 18 18 18 18 18 19 20 20 20 21 23 24 24 24 23 23 22 20 19 19 19 18 17 15
12 12 12 13 12 12 14 14 13 13 12 13 12 11 13 16 19 18 20 21 22 22 22 22 22 22 21 20 20 20 20 20 20 20 20 20 20 21 23 24 25 25 24 23 22 22 21 20 20 19 18 17 16 14
14 14 14 14 15 16 15 16 15 15 16 19 22 23 24 25 22 24 24 23 22 21 21 22 21 22 22 22 22 22 21 22 22 21 21 21 21 22 22 24 24 24 23 22 22 21 20 19 18 17 16 15 14 14